Welcome to Northern Hawkes Bay. New Zealand.
PWS Header
      nz Flag



Hit Counter


W3C Valid W3C Valid logo


    Wairoa

Select any of the Stations below to visit their websites.










Historic Data from Weather Underground
Select the location of interest below. Wairoa is the default. Please have patience, this Data is slow to load in.
Northern Hawkes Bay Historical Data
Daily Summary for February 15, 2017 Units:  Metric    English   Both
« Previous Day
Next Day »
Daily Weekly Monthly Yearly Custom
  High: Low: Average:
Temperature: 24.8 °C 15.7 °C 20.4 °C
Dew Point: 17.5 °C 12.7 °C 15.4 °C
Humidity: 90% 49% 73%
Wind Speed: 15.8km/h 0.0km/h 5.2km/h
Wind Gust: 29.4km/h - -
Wind- - South
Pressure: 1015.5 hPa 1010.0 hPa -
Precipitation: 0.0 mm    
Historical Graphs
 
 
Tabular Data for February 15, 2017
Time Temperature Dew Point Pressure Wind Wind Speed Wind Gust Humidity Rainfall Rate (Hourly) solar
00:01 20.0 °C 14.6 °C 1010.7 hPa Calm   1.1 km/h 71% 0.0 mm 0 W/m2
00:06 19.9 °C 14.9 °C 1010.7 hPa Calm     73% 0.0 mm 0 W/m2
00:11 19.7 °C 14.7 °C 1010.7 hPa Calm     73% 0.0 mm 0 W/m2
00:14 19.7 °C 14.9 °C 1010.7 hPa Calm   1.1 km/h 74% 0.0 mm 0 W/m2
00:19 19.6 °C 14.8 °C 1010.4 hPa Calm   1.1 km/h 74% 0.0 mm 0 W/m2
00:24 19.6 °C 14.8 °C 1010.4 hPa Calm     74% 0.0 mm 0 W/m2
00:29 19.6 °C 14.8 °C 1010.4 hPa Calm     74% 0.0 mm 0 W/m2
00:34 19.6 °C 14.8 °C 1010.7 hPa Calm     74% 0.0 mm 0 W/m2
00:40 19.5 °C 14.8 °C 1010.7 hPa Calm     74% 0.0 mm 0 W/m2
00:45 19.3 °C 14.6 °C 1010.7 hPa Calm   3.5 km/h 74% 0.0 mm 0 W/m2
00:50 19.4 °C 14.9 °C 1010.7 hPa NW 1.1 km/h 3.5 km/h 75% 0.0 mm 0 W/m2
00:56 19.4 °C 14.9 °C 1010.7 hPa NNW 1.1 km/h 3.5 km/h 75% 0.0 mm 0 W/m2
01:01 19.3 °C 14.8 °C 1010.4 hPa NNW 1.1 km/h 3.5 km/h 75% 0.0 mm 0 W/m2
01:06 19.3 °C 14.8 °C 1010.7 hPa Calm   3.5 km/h 75% 0.0 mm 0 W/m2
01:11 19.3 °C 14.8 °C 1010.4 hPa Calm   3.5 km/h 75% 0.0 mm 0 W/m2
01:16 19.3 °C 14.8 °C 1010.7 hPa Calm   3.5 km/h 75% 0.0 mm 0 W/m2
01:21 19.2 °C 14.7 °C 1010.4 hPa Calm   2.6 km/h 75% 0.0 mm 0 W/m2
01:26 19.2 °C 14.7 °C 1010.7 hPa Calm   2.6 km/h 75% 0.0 mm 0 W/m2
01:31 19.0 °C 14.5 °C 1010.4 hPa Calm   2.6 km/h 75% 0.0 mm 0 W/m2
01:36 18.9 °C 14.8 °C 1010.4 hPa Calm   1.1 km/h 77% 0.0 mm 0 W/m2
01:41 18.9 °C 14.8 °C 1010.7 hPa Calm     77% 0.0 mm 0 W/m2
01:46 18.8 °C 14.7 °C 1010.4 hPa Calm     77% 0.0 mm 0 W/m2
01:51 18.7 °C 14.8 °C 1010.4 hPa Calm   2.6 km/h 78% 0.0 mm 0 W/m2
01:56 18.6 °C 14.7 °C 1010.4 hPa Calm   2.6 km/h 78% 0.0 mm 0 W/m2
02:01 18.6 °C 14.7 °C 1010.4 hPa Calm   2.6 km/h 78% 0.0 mm 0 W/m2
02:07 18.6 °C 14.7 °C 1010.0 hPa Calm   2.6 km/h 78% 0.0 mm 0 W/m2
02:12 18.5 °C 14.6 °C 1010.0 hPa Calm   2.6 km/h 78% 0.0 mm 0 W/m2
02:17 18.4 °C 14.5 °C 1010.0 hPa NNE 1.1 km/h 2.6 km/h 78% 0.0 mm 0 W/m2
02:23 18.3 °C 14.6 °C 1010.4 hPa Calm   3.5 km/h 79% 0.0 mm 0 W/m2
02:28 18.2 °C 14.5 °C 1010.4 hPa Calm   3.5 km/h 79% 0.0 mm 0 W/m2
02:33 18.1 °C 14.4 °C 1010.0 hPa Calm     79% 0.0 mm 0 W/m2
02:38 18.0 °C 14.5 °C 1010.0 hPa Calm     80% 0.0 mm 0 W/m2
02:43 18.0 °C 14.7 °C 1010.4 hPa North 1.1 km/h 3.5 km/h 81% 0.0 mm 0 W/m2
02:48 17.9 °C 14.6 °C 1010.0 hPa North 1.1 km/h 5.0 km/h 81% 0.0 mm 0 W/m2
02:53 17.8 °C 14.7 °C 1010.0 hPa Calm   5.0 km/h 82% 0.0 mm 0 W/m2
02:58 17.7 °C 14.4 °C 1010.0 hPa Calm   5.0 km/h 81% 0.0 mm 0 W/m2
03:03 17.7 °C 14.4 °C 1010.4 hPa NE 1.1 km/h 2.6 km/h 81% 0.0 mm 0 W/m2
03:08 17.7 °C 14.4 °C 1010.4 hPa NNW 2.6 km/h 5.0 km/h 81% 0.0 mm 0 W/m2
03:13 17.7 °C 14.4 °C 1010.4 hPa NW 2.6 km/h 5.0 km/h 81% 0.0 mm 0 W/m2
03:18 17.7 °C 14.4 °C 1010.4 hPa NNW 1.1 km/h 3.5 km/h 81% 0.0 mm 0 W/m2
03:23 17.5 °C 14.2 °C 1010.4 hPa Calm   3.5 km/h 81% 0.0 mm 0 W/m2
03:28 17.5 °C 14.2 °C 1010.4 hPa NNW 2.6 km/h 3.5 km/h 81% 0.0 mm 0 W/m2
03:33 17.4 °C 14.3 °C 1010.4 hPa NNW 2.6 km/h 3.5 km/h 82% 0.0 mm 0 W/m2
03:38 17.4 °C 14.3 °C 1010.0 hPa North 1.1 km/h 5.0 km/h 82% 0.0 mm 0 W/m2
03:43 17.3 °C 14.4 °C 1010.4 hPa Calm   5.0 km/h 83% 0.0 mm 0 W/m2
03:48 17.2 °C 14.3 °C 1010.4 hPa Calm   3.5 km/h 83% 0.0 mm 0 W/m2
03:53 17.2 °C 14.3 °C 1010.4 hPa NNW 1.1 km/h 3.5 km/h 83% 0.0 mm 0 W/m2
03:58 17.2 °C 14.3 °C 1010.4 hPa NNW 3.5 km/h 5.0 km/h 83% 0.0 mm 0 W/m2
04:03 17.2 °C 14.3 °C 1010.4 hPa NW 2.6 km/h 5.0 km/h 83% 0.0 mm 0 W/m2
04:08 17.1 °C 14.4 °C 1010.0 hPa NW 3.5 km/h 5.0 km/h 84% 0.0 mm 0 W/m2
04:13 17.0 °C 14.3 °C 1010.4 hPa NNW 3.5 km/h 6.1 km/h 84% 0.0 mm 0 W/m2
04:18 17.0 °C 14.3 °C 1010.0 hPa NNW 2.6 km/h 6.1 km/h 84% 0.0 mm 0 W/m2
04:23 17.0 °C 14.3 °C 1010.4 hPa NNW 1.1 km/h 6.1 km/h 84% 0.0 mm 0 W/m2
04:28 17.1 °C 14.4 °C 1010.4 hPa North 2.6 km/h 5.0 km/h 84% 0.0 mm 0 W/m2
04:33 17.1 °C 14.2 °C 1010.0 hPa Calm   5.0 km/h 83% 0.0 mm 0 W/m2
04:38 17.1 °C 14.2 °C 1010.0 hPa NE 2.6 km/h 5.0 km/h 83% 0.0 mm 0 W/m2
04:43 17.1 °C 14.0 °C 1010.4 hPa Calm   5.0 km/h 82% 0.0 mm 0 W/m2
04:48 17.0 °C 13.9 °C 1010.4 hPa Calm   5.0 km/h 82% 0.0 mm 0 W/m2
04:53 16.9 °C 14.0 °C 1010.4 hPa Calm   1.1 km/h 83% 0.0 mm 0 W/m2
04:58 16.7 °C 14.0 °C 1010.0 hPa Calm     84% 0.0 mm 0 W/m2
05:03 16.5 °C 13.8 °C 1010.4 hPa Calm     84% 0.0 mm 0 W/m2
05:08 16.4 °C 13.7 °C 1010.7 hPa Calm     84% 0.0 mm 0 W/m2
05:13 16.4 °C 13.7 °C 1010.4 hPa North 1.1 km/h 2.6 km/h 84% 0.0 mm 0 W/m2
05:18 16.6 °C 14.1 °C 1010.7 hPa NNE 1.1 km/h 2.6 km/h 85% 0.0 mm 0 W/m2
05:23 16.7 °C 14.0 °C 1010.4 hPa NNE 1.1 km/h 2.6 km/h 84% 0.0 mm 0 W/m2
05:28 16.8 °C 14.1 °C 1010.4 hPa NNE 1.1 km/h 3.5 km/h 84% 0.0 mm 0 W/m2
05:33 16.8 °C 14.1 °C 1010.7 hPa Calm   5.0 km/h 84% 0.0 mm 0 W/m2
05:38 16.8 °C 14.1 °C 1010.7 hPa Calm   5.0 km/h 84% 0.0 mm 0 W/m2
05:43 16.7 °C 14.0 °C 1010.4 hPa Calm   2.6 km/h 84% 0.0 mm 0 W/m2
05:48 16.5 °C 13.8 °C 1010.7 hPa Calm   1.1 km/h 84% 0.0 mm 0 W/m2
05:53 16.4 °C 13.7 °C 1011.1 hPa Calm   1.1 km/h 84% 0.0 mm 0 W/m2
05:58 16.4 °C 13.9 °C 1011.1 hPa NW 2.6 km/h 3.5 km/h 85% 0.0 mm 0 W/m2
06:15 16.3 °C 13.8 °C 1010.7 hPa Calm   3.5 km/h 85% 0.0 mm 0 W/m2
06:20 16.2 °C 13.9 °C 1011.1 hPa Calm   1.1 km/h 86% 0.0 mm 0 W/m2
06:25 16.1 °C 13.8 °C 1011.1 hPa Calm   2.6 km/h 86% 0.0 mm 0 W/m2
06:30 15.9 °C 13.7 °C 1011.1 hPa Calm   2.6 km/h 87% 0.0 mm 0 W/m2
06:36 15.8 °C 13.8 °C 1011.1 hPa Calm   2.6 km/h 88% 0.0 mm 2 W/m2
06:41 15.7 °C 13.7 °C 1011.1 hPa Calm     88% 0.0 mm 5 W/m2
06:47 15.7 °C 13.9 °C 1011.1 hPa Calm     89% 0.0 mm 12 W/m2
06:52 15.7 °C 14.1 °C 1011.4 hPa Calm     90% 0.0 mm 18 W/m2
06:57 15.7 °C 14.1 °C 1011.7 hPa NW 3.5 km/h 5.0 km/h 90% 0.0 mm 25 W/m2
07:02 15.8 °C 14.2 °C 1011.4 hPa North 2.6 km/h 5.0 km/h 90% 0.0 mm 63 W/m2
07:07 16.2 °C 14.6 °C 1011.4 hPa North 2.6 km/h 5.0 km/h 90% 0.0 mm 85 W/m2
07:13 16.9 °C 15.1 °C 1011.4 hPa Calm   7.2 km/h 89% 0.0 mm 101 W/m2
07:18 17.4 °C 14.9 °C 1011.4 hPa North 5.0 km/h 7.2 km/h 85% 0.0 mm 107 W/m2
07:23 17.6 °C 14.7 °C 1011.4 hPa NNW 2.6 km/h 6.1 km/h 83% 0.0 mm 54 W/m2
07:28 17.6 °C 14.5 °C 1011.4 hPa NW 2.6 km/h 6.1 km/h 82% 0.0 mm 107 W/m2
07:33 17.6 °C 14.5 °C 1011.7 hPa NW 1.1 km/h 6.1 km/h 82% 0.0 mm 54 W/m2
07:38 17.5 °C 14.4 °C 1011.7 hPa NW 2.6 km/h 5.0 km/h 82% 0.0 mm 50 W/m2
07:43 17.3 °C 14.4 °C 1011.7 hPa NW 2.6 km/h 5.0 km/h 83% 0.0 mm 56 W/m2
07:48 17.7 °C 14.8 °C 1011.7 hPa NW 2.6 km/h 5.0 km/h 83% 0.0 mm 111 W/m2
07:53 18.0 °C 15.3 °C 1011.7 hPa NNW 6.1 km/h 8.7 km/h 84% 0.0 mm 144 W/m2
07:58 18.7 °C 15.2 °C 1011.7 hPa North 5.0 km/h 8.7 km/h 80% 0.0 mm 160 W/m2
08:03 19.3 °C 14.6 °C 1011.7 hPa NNW 8.7 km/h 12.2 km/h 74% 0.0 mm 180 W/m2
08:08 20.0 °C 15.0 °C 1011.7 hPa NNW 3.5 km/h 12.2 km/h 73% 0.0 mm 198 W/m2
08:13 20.0 °C 14.6 °C 1011.7 hPa NNW 7.2 km/h 11.1 km/h 71% 0.0 mm 215 W/m2
08:18 20.1 °C 14.4 °C 1011.7 hPa NW 5.0 km/h 12.2 km/h 70% 0.0 mm 233 W/m2
08:23 20.4 °C 14.6 °C 1012.1 hPa NW 5.0 km/h 12.2 km/h 69% 0.0 mm 234 W/m2
08:28 20.9 °C 14.6 °C 1011.7 hPa NNW 3.5 km/h 9.7 km/h 67% 0.0 mm 243 W/m2
08:33 21.2 °C 14.6 °C 1011.7 hPa NNW 5.0 km/h 9.7 km/h 66% 0.0 mm 256 W/m2
08:38 21.3 °C 14.2 °C 1012.1 hPa NNW 6.1 km/h 9.7 km/h 64% 0.0 mm 272 W/m2
08:43 21.6 °C 14.3 °C 1012.1 hPa NNW 5.0 km/h 9.7 km/h 63% 0.0 mm 278 W/m2
08:48 22.0 °C 14.7 °C 1012.1 hPa NNW 3.5 km/h 9.7 km/h 63% 0.0 mm 289 W/m2
08:53 22.5 °C 14.6 °C 1012.1 hPa NNW 1.1 km/h 8.7 km/h 61% 0.0 mm 308 W/m2
08:58 23.0 °C 14.6 °C 1012.1 hPa NNW 5.0 km/h 8.7 km/h 59% 0.0 mm 337 W/m2
09:03 22.7 °C 14.1 °C 1012.1 hPa North 5.0 km/h 11.1 km/h 58% 0.0 mm 378 W/m2
09:08 23.6 °C 14.1 °C 1012.1 hPa North 5.0 km/h 11.1 km/h 55% 0.0 mm 435 W/m2
09:13 23.4 °C 13.6 °C 1012.4 hPa NNE 3.5 km/h 11.1 km/h 54% 0.0 mm 368 W/m2
09:18 23.4 °C 13.6 °C 1012.1 hPa NNE 6.1 km/h 11.1 km/h 54% 0.0 mm 482 W/m2
09:23 24.0 °C 13.3 °C 1012.1 hPa NNE 6.1 km/h 9.7 km/h 51% 0.0 mm 472 W/m2
09:28 24.4 °C 13.3 °C 1012.1 hPa NE 6.1 km/h 13.4 km/h 50% 0.0 mm 425 W/m2
09:33 24.5 °C 13.4 °C 1012.1 hPa NE 6.1 km/h 13.4 km/h 50% 0.0 mm 416 W/m2
09:38 24.4 °C 13.3 °C 1012.4 hPa NNE 3.5 km/h 13.4 km/h 50% 0.0 mm 436 W/m2
09:43 24.8 °C 13.7 °C 1012.1 hPa NNE 3.5 km/h 7.2 km/h 50% 0.0 mm 496 W/m2
09:48 24.3 °C 12.9 °C 1012.4 hPa NNW 5.0 km/h 9.7 km/h 49% 0.0 mm 243 W/m2
09:53 24.0 °C 12.7 °C 1012.4 hPa Calm   9.7 km/h 49% 0.0 mm 263 W/m2
09:58 24.2 °C 14.3 °C 1012.4 hPa ENE 6.1 km/h 11.1 km/h 54% 0.0 mm 405 W/m2
10:03 23.5 °C 14.8 °C 1012.8 hPa SE 3.5 km/h 12.2 km/h 58% 0.0 mm 296 W/m2
10:08 22.5 °C 15.1 °C 1012.4 hPa SSE 6.1 km/h 15.8 km/h 63% 0.0 mm 338 W/m2
10:13 22.5 °C 15.4 °C 1012.4 hPa SE 7.2 km/h 15.8 km/h 64% 0.0 mm 546 W/m2
10:18 22.9 °C 15.7 °C 1012.4 hPa SSE 9.7 km/h 17.2 km/h 64% 0.0 mm 572 W/m2
10:23 23.1 °C 16.7 °C 1012.4 hPa SE 3.5 km/h 17.2 km/h 67% 0.0 mm 597 W/m2
10:28 23.0 °C 16.6 °C 1012.8 hPa ESE 5.0 km/h 17.2 km/h 67% 0.0 mm 558 W/m2
10:33 23.5 °C 17.3 °C 1012.8 hPa SSE 6.1 km/h 14.8 km/h 68% 0.0 mm 620 W/m2
10:38 23.5 °C 17.5 °C 1012.8 hPa SSE 7.2 km/h 14.8 km/h 69% 0.0 mm 352 W/m2
10:43 23.2 °C 17.2 °C 1012.8 hPa ESE 5.0 km/h 13.4 km/h 69% 0.0 mm 645 W/m2
10:48 23.3 °C 17.1 °C 1012.8 hPa SE 12.2 km/h 17.2 km/h 68% 0.0 mm 673 W/m2
10:53 22.8 °C 16.8 °C 1012.8 hPa South 7.2 km/h 17.2 km/h 69% 0.0 mm 689 W/m2
10:58 23.2 °C 16.8 °C 1012.8 hPa South 8.7 km/h 17.2 km/h 67% 0.0 mm 709 W/m2
11:03 23.5 °C 17.3 °C 1012.8 hPa South 5.0 km/h 15.8 km/h 68% 0.0 mm 733 W/m2
11:08 23.3 °C 16.8 °C 1012.8 hPa SSE 11.1 km/h 14.8 km/h 67% 0.0 mm 759 W/m2
11:13 23.4 °C 16.7 °C 1012.8 hPa SE 6.1 km/h 14.8 km/h 66% 0.0 mm 798 W/m2
11:18 23.4 °C 16.4 °C 1012.8 hPa SE 7.2 km/h 14.8 km/h 65% 0.0 mm 747 W/m2
11:23 23.3 °C 16.4 °C 1012.8 hPa SSE 12.2 km/h 18.3 km/h 65% 0.0 mm 840 W/m2
11:28 22.4 °C 15.3 °C 1012.8 hPa South 15.8 km/h 18.3 km/h 64% 0.0 mm 842 W/m2
11:33 22.3 °C 15.4 °C 1012.8 hPa South 9.7 km/h 18.3 km/h 65% 0.0 mm 870 W/m2
11:38 22.8 °C 15.4 °C 1012.8 hPa SSE 3.5 km/h 18.3 km/h 63% 0.0 mm 884 W/m2
11:43 22.9 °C 15.3 °C 1012.8 hPa SSE 12.2 km/h 17.2 km/h 62% 0.0 mm 916 W/m2
11:48 22.0 °C 14.2 °C 1012.8 hPa South 8.7 km/h 17.2 km/h 61% 0.0 mm 918 W/m2
11:53 22.6 °C 14.9 °C 1012.8 hPa South 11.1 km/h 18.3 km/h 62% 0.0 mm 945 W/m2
11:58 22.4 °C 14.5 °C 1012.8 hPa South 7.2 km/h 18.3 km/h 61% 0.0 mm 962 W/m2
12:03 22.6 °C 14.9 °C 1012.8 hPa SSE 8.7 km/h 18.3 km/h 62% 0.0 mm 1018 W/m2
12:08 22.9 °C 15.3 °C 1012.8 hPa SSE 7.2 km/h 17.2 km/h 62% 0.0 mm 704 W/m2
12:13 22.8 °C 14.9 °C 1012.8 hPa SSE 9.7 km/h 19.5 km/h 61% 0.0 mm 926 W/m2
12:19 23.4 °C 14.7 °C 1012.8 hPa SSE 8.7 km/h 19.5 km/h 58% 0.0 mm 956 W/m2
12:24 23.2 °C 14.5 °C 1012.8 hPa SSE 8.7 km/h 17.2 km/h 58% 0.0 mm 1098 W/m2
12:29 23.6 °C 14.9 °C 1012.8 hPa South 6.1 km/h 17.2 km/h 58% 0.0 mm 1122 W/m2
12:34 23.9 °C 14.9 °C 1012.4 hPa South 3.5 km/h 17.2 km/h 57% 0.0 mm 1167 W/m2
12:39 24.4 °C 14.8 °C 1012.4 hPa SSE 9.7 km/h 17.2 km/h 55% 0.0 mm 1162 W/m2
12:49 23.9 °C 15.2 °C 1012.4 hPa South 7.2 km/h 19.5 km/h 58% 0.0 mm 1150 W/m2
12:54 24.0 °C 14.4 °C 1012.4 hPa SSE 3.5 km/h 19.5 km/h 55% 0.0 mm 1068 W/m2
12:59 24.3 °C 14.4 °C 1012.4 hPa SE 13.4 km/h 19.5 km/h 54% 0.0 mm 1037 W/m2
13:04 23.3 °C 14.1 °C 1012.4 hPa SSE 9.7 km/h 19.5 km/h 56% 0.0 mm 1029 W/m2
13:09 22.8 °C 14.9 °C 1012.4 hPa South 7.2 km/h 19.5 km/h 61% 0.0 mm 895 W/m2
13:15 22.8 °C 14.7 °C 1012.4 hPa SSE 7.2 km/h 21.9 km/h 60% 0.0 mm 997 W/m2
13:21 22.9 °C 15.0 °C 1012.4 hPa SSE 8.7 km/h 21.9 km/h 61% 0.0 mm 1052 W/m2
13:26 23.0 °C 16.1 °C 1012.4 hPa SSE 12.2 km/h 19.5 km/h 65% 0.0 mm 996 W/m2
13:31 23.4 °C 16.4 °C 1012.4 hPa SE 7.2 km/h 19.5 km/h 65% 0.0 mm 907 W/m2
13:36 24.1 °C 16.4 °C 1012.4 hPa SSE 11.1 km/h 17.2 km/h 62% 0.0 mm 1005 W/m2
13:41 23.6 °C 15.4 °C 1012.4 hPa South 8.7 km/h 17.2 km/h 60% 0.0 mm 836 W/m2
13:46 23.0 °C 16.1 °C 1012.4 hPa South 8.7 km/h 17.2 km/h 65% 0.0 mm 633 W/m2
13:51 23.0 °C 16.1 °C 1012.4 hPa SSE 7.2 km/h 18.3 km/h 65% 0.0 mm 420 W/m2
13:56 22.9 °C 15.7 °C 1012.4 hPa SE 8.7 km/h 18.3 km/h 64% 0.0 mm 868 W/m2
14:01 22.8 °C 15.9 °C 1012.4 hPa SSE 7.2 km/h 17.2 km/h 65% 0.0 mm 541 W/m2
14:07 23.2 °C 15.8 °C 1012.1 hPa SSE 11.1 km/h 19.5 km/h 63% 0.0 mm 730 W/m2
14:12 22.8 °C 15.7 °C 1012.4 hPa SSE 6.1 km/h 19.5 km/h 64% 0.0 mm 943 W/m2
14:18 23.1 °C 16.7 °C 1012.4 hPa SSE 8.7 km/h 17.2 km/h 67% 0.0 mm 434 W/m2
14:24 22.8 °C 16.1 °C 1012.1 hPa SE 7.2 km/h 17.2 km/h 66% 0.0 mm 548 W/m2
14:29 22.6 °C 15.9 °C 1012.1 hPa SSE 8.7 km/h 19.5 km/h 66% 0.0 mm 469 W/m2
14:34 22.1 °C 16.4 °C 1012.1 hPa SSE 7.2 km/h 19.5 km/h 70% 0.0 mm 299 W/m2
14:39 21.7 °C 16.2 °C 1012.4 hPa SSE 7.2 km/h 20.9 km/h 71% 0.0 mm 356 W/m2
14:45 21.8 °C 16.6 °C 1012.4 hPa SSE 6.1 km/h 20.9 km/h 72% 0.0 mm 373 W/m2
14:50 22.1 °C 16.6 °C 1012.1 hPa SE 7.2 km/h 18.3 km/h 71% 0.0 mm 586 W/m2
14:55 22.4 °C 16.7 °C 1012.4 hPa SE 7.2 km/h 18.3 km/h 70% 0.0 mm 747 W/m2
15:00 22.3 °C 16.6 °C 1012.1 hPa SSE 12.2 km/h 21.9 km/h 70% 0.0 mm 574 W/m2
15:06 22.1 °C 15.9 °C 1012.1 hPa SE 9.7 km/h 21.9 km/h 68% 0.0 mm 727 W/m2
15:11 22.0 °C 15.8 °C 1011.7 hPa SSE 11.1 km/h 28.0 km/h 68% 0.0 mm 659 W/m2
15:16 22.6 °C 15.9 °C 1012.1 hPa SSE 13.4 km/h 28.0 km/h 66% 0.0 mm 611 W/m2
15:21 22.5 °C 16.1 °C 1012.1 hPa SE 8.7 km/h 29.4 km/h 67% 0.0 mm 553 W/m2
15:27 22.8 °C 16.8 °C 1012.1 hPa SE 8.7 km/h 29.4 km/h 69% 0.0 mm 767 W/m2
15:32 23.0 °C 16.8 °C 1012.1 hPa SE 7.2 km/h 20.9 km/h 68% 0.0 mm 488 W/m2
15:37 22.9 °C 16.2 °C 1012.1 hPa SE 8.7 km/h 23.3 km/h 66% 0.0 mm 637 W/m2
15:42 22.6 °C 16.2 °C 1012.1 hPa SE 13.4 km/h 27.0 km/h 67% 0.0 mm 304 W/m2
15:47 22.1 °C 16.2 °C 1012.1 hPa SSE 9.7 km/h 27.0 km/h 69% 0.0 mm 374 W/m2
15:52 22.0 °C 16.3 °C 1012.1 hPa SSE 8.7 km/h 27.0 km/h 70% 0.0 mm 381 W/m2
15:57 22.0 °C 15.8 °C 1012.1 hPa SSE 13.4 km/h 21.9 km/h 68% 0.0 mm 559 W/m2
16:02 22.1 °C 16.6 °C 1012.1 hPa SE 9.7 km/h 21.9 km/h 71% 0.0 mm 619 W/m2
16:07 22.8 °C 16.8 °C 1012.1 hPa SE 12.2 km/h 25.6 km/h 69% 0.0 mm 474 W/m2
16:12 23.2 °C 16.5 °C 1012.1 hPa SE 8.7 km/h 25.6 km/h 66% 0.0 mm 472 W/m2
16:17 22.9 °C 15.5 °C 1012.1 hPa SE 9.7 km/h 21.9 km/h 63% 0.0 mm 432 W/m2
16:22 22.9 °C 15.7 °C 1012.1 hPa SE 13.4 km/h 21.9 km/h 64% 0.0 mm 423 W/m2
16:27 23.1 °C 16.4 °C 1012.1 hPa SE 11.1 km/h 21.9 km/h 66% 0.0 mm 236 W/m2
16:32 23.3 °C 16.8 °C 1012.1 hPa SE 7.2 km/h 21.9 km/h 67% 0.0 mm 276 W/m2
16:37 23.5 °C 16.6 °C 1012.1 hPa SE 11.1 km/h 23.3 km/h 65% 0.0 mm 570 W/m2
16:42 23.8 °C 16.8 °C 1012.1 hPa SE 7.2 km/h 23.3 km/h 65% 0.0 mm 456 W/m2
16:47 24.0 °C 17.1 °C 1012.4 hPa SE 13.4 km/h 20.9 km/h 65% 0.0 mm 363 W/m2
16:52 22.8 °C 16.6 °C 1012.4 hPa SE 11.1 km/h 20.9 km/h 68% 0.0 mm 481 W/m2
16:57 22.9 °C 17.2 °C 1012.1 hPa SSE 8.7 km/h 18.3 km/h 70% 0.0 mm 324 W/m2
17:02 22.6 °C 16.9 °C 1012.4 hPa SE 9.7 km/h 23.3 km/h 70% 0.0 mm 256 W/m2
17:07 22.8 °C 17.5 °C 1012.4 hPa SE 7.2 km/h 23.3 km/h 72% 0.0 mm 321 W/m2
17:12 23.0 °C 16.8 °C 1012.4 hPa SE 9.7 km/h 19.5 km/h 68% 0.0 mm 349 W/m2
17:17 23.3 °C 16.8 °C 1012.4 hPa ESE 9.7 km/h 19.5 km/h 67% 0.0 mm 295 W/m2
17:22 23.2 °C 16.5 °C 1012.4 hPa ESE 8.7 km/h 19.5 km/h 66% 0.0 mm 338 W/m2
17:27 23.2 °C 16.5 °C 1012.4 hPa ESE 8.7 km/h 19.5 km/h 66% 0.0 mm 254 W/m2
17:32 23.1 °C 16.4 °C 1012.4 hPa ESE 9.7 km/h 18.3 km/h 66% 0.0 mm 319 W/m2
17:37 23.1 °C 16.7 °C 1012.4 hPa SE 6.1 km/h 17.2 km/h 67% 0.0 mm 206 W/m2
17:42 23.1 °C 16.7 °C 1012.4 hPa SE 13.4 km/h 17.2 km/h 67% 0.0 mm 236 W/m2
17:47 22.9 °C 16.4 °C 1012.4 hPa ESE 8.7 km/h 15.8 km/h 67% 0.0 mm 250 W/m2
17:52 23.1 °C 16.9 °C 1012.8 hPa ESE 8.7 km/h 15.8 km/h 68% 0.0 mm 165 W/m2
17:57 22.6 °C 16.4 °C 1012.8 hPa ESE 6.1 km/h 14.8 km/h 68% 0.0 mm 137 W/m2
18:02 22.2 °C 16.5 °C 1012.8 hPa ESE 6.1 km/h 15.8 km/h 70% 0.0 mm 149 W/m2
18:07 22.0 °C 16.5 °C 1012.8 hPa ESE 6.1 km/h 15.8 km/h 71% 0.0 mm 120 W/m2
18:13 21.6 °C 16.3 °C 1012.8 hPa SE 8.7 km/h 17.2 km/h 72% 0.0 mm 135 W/m2
18:18 21.6 °C 16.6 °C 1012.8 hPa ESE 9.7 km/h 17.2 km/h 73% 0.0 mm 119 W/m2
18:23 21.6 °C 16.6 °C 1012.8 hPa SE 8.7 km/h 17.2 km/h 73% 0.0 mm 158 W/m2
18:28 21.6 °C 16.6 °C 1012.8 hPa SE 11.1 km/h 17.2 km/h 73% 0.0 mm 136 W/m2
18:33 21.6 °C 16.8 °C 1012.8 hPa SE 6.1 km/h 14.8 km/h 74% 0.0 mm 107 W/m2
18:38 21.4 °C 16.6 °C 1013.1 hPa SE 8.7 km/h 14.8 km/h 74% 0.0 mm 100 W/m2
18:43 21.3 °C 16.5 °C 1012.8 hPa SE 3.5 km/h 14.8 km/h 74% 0.0 mm 116 W/m2
18:48 21.3 °C 16.5 °C 1013.1 hPa ESE 7.2 km/h 14.8 km/h 74% 0.0 mm 116 W/m2
18:53 21.4 °C 16.6 °C 1013.1 hPa SE 7.2 km/h 13.4 km/h 74% 0.0 mm 95 W/m2
18:58 21.2 °C 16.6 °C 1012.8 hPa SE 6.1 km/h 14.8 km/h 75% 0.0 mm 79 W/m2
19:03 21.1 °C 16.5 °C 1012.8 hPa SE 6.1 km/h 14.8 km/h 75% 0.0 mm 73 W/m2
19:08 21.1 °C 16.7 °C 1013.1 hPa SE 5.0 km/h 13.4 km/h 76% 0.0 mm 55 W/m2
19:13 21.0 °C 16.6 °C 1013.1 hPa SE 6.1 km/h 13.4 km/h 76% 0.0 mm 43 W/m2
19:18 20.8 °C 16.8 °C 1013.1 hPa SE 3.5 km/h 19.5 km/h 78% 0.0 mm 53 W/m2
19:23 20.7 °C 16.7 °C 1013.1 hPa SE 6.1 km/h 19.5 km/h 78% 0.0 mm 60 W/m2
19:28 20.7 °C 16.7 °C 1013.4 hPa SE 6.1 km/h 13.4 km/h 78% 0.0 mm 44 W/m2
19:33 20.7 °C 16.9 °C 1013.4 hPa SE 3.5 km/h 13.4 km/h 79% 0.0 mm 34 W/m2
19:38 20.7 °C 16.9 °C 1013.4 hPa SE 1.1 km/h 12.2 km/h 79% 0.0 mm 34 W/m2
19:43 20.6 °C 16.8 °C 1013.4 hPa SE 3.5 km/h 12.2 km/h 79% 0.0 mm 22 W/m2
19:48 20.5 °C 16.7 °C 1013.4 hPa SSE 6.1 km/h 12.2 km/h 79% 0.0 mm 19 W/m2
19:53 20.4 °C 16.8 °C 1013.4 hPa SE 5.0 km/h 12.2 km/h 80% 0.0 mm 13 W/m2
20:11 20.0 °C 16.8 °C 1013.8 hPa SE 8.7 km/h 17.2 km/h 82% 0.0 mm 0 W/m2
20:16 19.9 °C 16.9 °C 1013.8 hPa SE 7.2 km/h 17.2 km/h 83% 0.0 mm 0 W/m2
20:21 19.8 °C 16.7 °C 1013.8 hPa SE 6.1 km/h 17.2 km/h 82% 0.0 mm 0 W/m2
20:26 19.7 °C 16.6 °C 1013.8 hPa SSE 9.7 km/h 18.3 km/h 82% 0.0 mm 0 W/m2
20:31 19.7 °C 16.6 °C 1014.4 hPa SE 5.0 km/h 18.3 km/h 82% 0.0 mm 0 W/m2
20:36 19.7 °C 16.6 °C 1014.4 hPa ESE 3.5 km/h 17.2 km/h 82% 0.0 mm 0 W/m2
20:41 19.6 °C 16.4 °C 1014.4 hPa SE 5.0 km/h 14.8 km/h 82% 0.0 mm 0 W/m2
20:46 19.6 °C 16.4 °C 1014.8 hPa SE 7.2 km/h 14.8 km/h 82% 0.0 mm 0 W/m2
20:51 19.6 °C 16.4 °C 1014.4 hPa ESE 5.0 km/h 12.2 km/h 82% 0.0 mm 0 W/m2
20:56 19.6 °C 16.4 °C 1014.8 hPa ESE 2.6 km/h 15.8 km/h 82% 0.0 mm 0 W/m2
21:01 19.5 °C 16.2 °C 1014.8 hPa ESE 8.7 km/h 15.8 km/h 81% 0.0 mm 0 W/m2
21:06 19.5 °C 16.3 °C 1014.8 hPa ESE 3.5 km/h 14.8 km/h 82% 0.0 mm 0 W/m2
21:11 19.5 °C 16.3 °C 1014.8 hPa SE 3.5 km/h 14.8 km/h 82% 0.0 mm 0 W/m2
21:16 19.5 °C 16.2 °C 1015.1 hPa SSE 9.7 km/h 14.8 km/h 81% 0.0 mm 0 W/m2
21:21 19.5 °C 16.2 °C 1015.1 hPa SE 7.2 km/h 17.2 km/h 81% 0.0 mm 0 W/m2
21:26 19.5 °C 16.2 °C 1015.1 hPa SE 12.2 km/h 17.2 km/h 81% 0.0 mm 0 W/m2
21:31 19.5 °C 16.2 °C 1015.1 hPa ESE 7.2 km/h 18.3 km/h 81% 0.0 mm 0 W/m2
21:36 19.5 °C 16.2 °C 1015.1 hPa ESE 7.2 km/h 18.3 km/h 81% 0.0 mm 0 W/m2
21:41 19.5 °C 16.2 °C 1015.1 hPa SE 7.2 km/h 17.2 km/h 81% 0.0 mm 0 W/m2
21:46 19.5 °C 15.9 °C 1015.1 hPa SE 6.1 km/h 17.2 km/h 80% 0.0 mm 0 W/m2
21:51 19.5 °C 15.9 °C 1015.5 hPa SSE 6.1 km/h 17.2 km/h 80% 0.0 mm 0 W/m2
21:56 19.4 °C 15.9 °C 1015.5 hPa SSE 7.2 km/h 17.2 km/h 80% 0.0 mm 0 W/m2
22:01 19.5 °C 15.9 °C 1015.1 hPa SE 5.0 km/h 19.5 km/h 80% 0.0 mm 0 W/m2
22:06 19.4 °C 16.1 °C 1015.1 hPa SE 5.0 km/h 19.5 km/h 81% 0.0 mm 0 W/m2
22:11 19.4 °C 15.9 °C 1015.5 hPa ESE 5.0 km/h 13.4 km/h 80% 0.0 mm 0 W/m2
22:16 19.4 °C 15.9 °C 1015.5 hPa SE 9.7 km/h 14.8 km/h 80% 0.0 mm 0 W/m2
22:21 19.4 °C 15.7 °C 1015.5 hPa ESE 5.0 km/h 17.2 km/h 79% 0.0 mm 0 W/m2
22:27 19.4 °C 15.9 °C 1015.5 hPa ESE 3.5 km/h 17.2 km/h 80% 0.0 mm 0 W/m2
22:32 19.4 °C 15.9 °C 1015.5 hPa SE 3.5 km/h 14.8 km/h 80% 0.0 mm 0 W/m2
22:37 19.4 °C 15.9 °C 1015.5 hPa SE 5.0 km/h 14.8 km/h 80% 0.0 mm 0 W/m2
22:42 19.4 °C 15.9 °C 1015.5 hPa SE 3.5 km/h 13.4 km/h 80% 0.0 mm 0 W/m2
22:47 19.4 °C 16.1 °C 1015.5 hPa SSE 6.1 km/h 14.8 km/h 81% 0.0 mm 0 W/m2
22:52 19.4 °C 16.1 °C 1015.1 hPa SE 6.1 km/h 14.8 km/h 81% 0.0 mm 0 W/m2
22:57 19.4 °C 16.1 °C 1015.5 hPa ESE 8.7 km/h 14.8 km/h 81% 0.0 mm 0 W/m2
23:02 19.4 °C 15.9 °C 1015.1 hPa ESE 5.0 km/h 14.8 km/h 80% 0.0 mm 0 W/m2
23:07 19.4 °C 15.7 °C 1015.5 hPa ESE 6.1 km/h 18.3 km/h 79% 0.0 mm 0 W/m2
23:12 19.3 °C 15.6 °C 1015.1 hPa ESE 8.7 km/h 20.9 km/h 79% 0.0 mm 0 W/m2
23:17 19.3 °C 15.6 °C 1015.5 hPa East 7.2 km/h 20.9 km/h 79% 0.0 mm 0 W/m2
23:22 19.2 °C 15.7 °C 1015.1 hPa East 7.2 km/h 17.2 km/h 80% 0.0 mm 0 W/m2
23:27 19.2 °C 15.7 °C 1015.5 hPa East 8.7 km/h 19.5 km/h 80% 0.0 mm 0 W/m2
23:32 19.2 °C 15.9 °C 1015.1 hPa ESE 7.2 km/h 19.5 km/h 81% 0.0 mm 0 W/m2
23:38 19.2 °C 15.9 °C 1015.1 hPa East 7.2 km/h 17.2 km/h 81% 0.0 mm 0 W/m2
23:43 19.1 °C 15.9 °C 1015.1 hPa East 8.7 km/h 17.2 km/h 82% 0.0 mm 0 W/m2
23:48 19.1 °C 16.2 °C 1015.1 hPa East 7.2 km/h 14.8 km/h 83% 0.0 mm 0 W/m2
23:53 19.0 °C 16.1 °C 1015.1 hPa East 6.1 km/h 14.8 km/h 83% 0.0 mm 0 W/m2
Northern Hawkes Bay. New Zealand Historic Data
Compliments of Weather Underground - 2 mb